Skip Page Navigation
NASA JPL Caltech
NASA Logo - Jet Propulsion Laboratory + View the NASA Portal
+ Near-Earth Object (NEO) Program
Search JPL
JPL Home Earth Solar System Stars & Galaxies Technology
JPL Solar System Dynamics
BODIES ORBITS EPHEMERIDES TOOLS PHYSICAL DATA DISCOVERY FAQ SITE MAP
JPL Small-Body Database Browser
Search: [ help ]  
10410 (1997 XR9)
Classification: Main-belt Asteroid          SPK-ID: 2010410
Ephemeris | Orbit Diagram | Orbital Elements | Physical Parameters | Discovery Circumstances | Close-Approach Data ]

[ show orbit diagram ]
Orbital Elements at Epoch 2457600.5 (2016-Jul-31.0) TDB
Reference: JPL 21 (heliocentric ecliptic J2000)
 Element Value Uncertainty (1-sigma)   Units 
e .1398225862471127 5.1412e-08  
a 3.166275063419593 3.2288e-08 au
q 2.723558295282525 1.5888e-07 au
i 7.929625746662714 6.1215e-06 deg
node 36.18136550510464 4.0274e-05 deg
peri 266.4711598257013 4.7215e-05 deg
M 220.6476565095107 2.781e-05 deg
tp 2458397.086906464824
(2018-Oct-05.58690646)
0.000165 JED
period 2057.886355868198
5.63
3.1478e-05
8.618e-08
d
yr
n .1749367738278824 2.6759e-09 deg/d
Q 3.608991831556662 3.6803e-08 au
  Orbit Determination Parameters
   # obs. used (total)      1217  
   data-arc span      13887 days (38.02 yr)  
   first obs. used      1978-04-11  
   last obs. used      2016-04-18  
   planetary ephem.      DE431  
   SB-pert. ephem.      SB431-BIG16  
   condition code      0  
   fit RMS      .51429  
   data source      ORB  
   producer      Otto Matic  
   solution date      2016-Apr-25 13:08:29  

Additional Information
 Earth MOID = 1.72312 au 
 Jupiter MOID = 1.68389 au 
 T_jup = 3.173 
[ show covariance matrix ]

Ephemeris | Orbit Diagram | Orbital Elements | Physical Parameters | Discovery Circumstances | Close-Approach Data ]

Physical Parameter Table
Parameter Symbol Value Units Sigma Reference Notes
absolute magnitude H 12.5 mag n/a MPO365374  

10410 (1997 XR9)          Discovered 1997-Dec-04 by Beijing Schmidt CCD Asteroid Program at Xinglong
Reference: 19990402/Numbers.arcLast Updated: 2004-04-19

[ show close-approach data ]
Alternate Designations
 1997 XR9 = 1978 GH4 = 1978 JZ3 = 1980 UT = 1999 CB18 
Ephemeris | Orbit Diagram | Orbital Elements | Physical Parameters | Discovery Circumstances | Close-Approach Data ]
ABOUT SSD CREDITS/AWARDS PRIVACY/COPYRIGHT GLOSSARY LINKS
FirstGov 2016-May-04 04:08 UT
(server date/time)  
NASA Home Page
Site Manager:   Ryan S. Park
Webmaster  Alan B. Chamberlin